Hourly Data Report for October 01, 2015

All times are specified in Local Standard Time (LST). Add 1 hour to adjust for Daylight Saving Time where and when it is observed.

KUGLUKTUK A
NUNAVUT

67°49'00.000" N
115°08'38.000" W
22.60 m
2300903
71938
YCO

Download Data

Hourly Data (October 2015)
Hourly Data Report for October 1, 2015
Temp Definition
°C
Dew Point Temp Definition
°C
Rel Hum Definition
%
Wind Dir Definition
10's deg

Wind Spd Definition
km/h
Visibility Definition
km
Stn Press Definition
kPa
Hmdx Definition


Wind Chill Definition


Weather Definition


TIME
00:00 Legend Double Dagger 2.2 -1.4 77 26 35 24.1 99.62     LegendNANA
01:00 Legend Double Dagger 1.5 -2.3 76 26 35 24.1 99.82     LegendNANA
02:00 Legend Double Dagger 0.9 -3.0 75 25 40 24.1 99.98     Clear
03:00 Legend Double Dagger 0.3 -4.0 73 26 40 24.1 100.17     LegendNANA
04:00 Legend Double Dagger -0.2 -4.5 73 25 38 24.1 100.34   -7 LegendNANA
05:00 Legend Double Dagger -0.5 -4.6 74 25 36 24.1 100.53   -8 Clear
06:00 Legend Double Dagger -0.5 -4.2 76 25 41 24.1 100.72   -8 LegendNANA
07:00 Legend Double Dagger -0.7 -4.2 77 25 29 24.1 100.90   -7 LegendNANA
08:00 Legend Double Dagger -0.2 -4.5 73 26 37 24.1 101.07   -7 Clear
09:00 Legend Double Dagger 0.6 -4.6 68 27 39 24.1 101.23     LegendNANA
10:00 Legend Double Dagger 1.3 -4.8 64 27 37 24.1 101.38     LegendNANA
11:00 Legend Double Dagger 2.0 -5.0 60 27 39 24.1 101.52     Clear
12:00 Legend Double Dagger 2.6 -4.9 58 27 34 24.1 101.67     LegendNANA
13:00 Legend Double Dagger 3.0 -4.5 58 27 37 24.1 101.77     LegendNANA
14:00 Legend Double Dagger 2.8 -4.4 59 27 33 24.1 101.90     Mainly Clear
15:00 Legend Double Dagger 2.7 -4.3 60 26 26 24.1 102.00     LegendNANA
16:00 Legend Double Dagger 2.6 -4.4 60 27 22 24.1 102.10     LegendNANA
17:00 Legend Double Dagger 2.1 -4.0 64 25 17 24.1 102.21     Mostly Cloudy
18:00 Legend Double Dagger 1.5 -3.8 68 24 17 24.1 102.31     LegendNANA
19:00 Legend Double Dagger 0.7 -3.6 73 23 18 24.1 102.40     LegendNANA
20:00 Legend Double Dagger -1.5 -4.3 81 23 18 24.1 102.48   -7 Mainly Clear
21:00 Legend Double Dagger -1.3 -4.5 79 23 19 24.1 102.53   -7 LegendNANA
22:00 Legend Double Dagger -2.7 -5.0 84 23 19 24.1 102.58   -8 LegendNANA
23:00 Legend Double Dagger -1.3 -4.7 78 25 22 24.1 102.63   -7 Clear

Notes on Data Quality.

Legend

  • E = Estimated
  • M = Missing
  • NA = Not Available
  • ‡ = Partner data that is not subject to review by the National Climate Archives
Date modified: